When you browse on this site, cookies collect data to enhance your experience and personalize the content and advertising you see.
Visit our Privacy Policy to learn more. By continuing to use the site, you agree to this use of cookies and data.
  • In Switzerland
  • List of Countries
  • For 7 days
  • Water Temperature
  • Weather Map
  • Weather Widgets
  • user-avatar
    Login

    Hourly Weather Polotsk

    Today, 17 February, Monday

    Time Temperature Precipitation Wind Pressure Humidity
    00:00 +1°C° 0.2 mm 8 mps 742 mmHg 80%
    01:00 +1°C° 0.2 mm 8 mps 742 mmHg 81%
    02:00 +2°C° 0.2 mm 7 mps 741 mmHg 81%
    03:00 +2°C° 0 mm 8 mps 741 mmHg 79%
    04:00 +2°C° 0 mm 8 mps 740 mmHg 77%
    05:00 +2°C° 0 mm 8 mps 740 mmHg 76%
    06:00 +2°C° 0 mm 8 mps 740 mmHg 73%
    07:00 +2°C° 0 mm 8 mps 740 mmHg 70%
    08:00 +2°C° 0 mm 8 mps 740 mmHg 68%
    09:00 +4°C° 0 mm 8 mps 740 mmHg 68%
    10:00 +4°C° 0 mm 8 mps 740 mmHg 67%
    11:00 +5°C° 0 mm 7 mps 740 mmHg 67%
    12:00 +5°C° 0 mm 7 mps 740 mmHg 70%
    13:00 +5°C° 0 mm 6 mps 741 mmHg 72%
    14:00 +5°C° 0 mm 6 mps 741 mmHg 75%
    15:00 +5°C° 0.3 mm 6 mps 741 mmHg 77%
    16:00 +5°C° 0.3 mm 6 mps 741 mmHg 79%
    17:00 +4°C° 0.3 mm 6 mps 742 mmHg 81%
    18:00 +4°C° 0 mm 6 mps 742 mmHg 80%
    19:00 +3°C° 0 mm 5 mps 743 mmHg 78%
    20:00 +3°C° 0 mm 5 mps 744 mmHg 77%
    21:00 +3°C° 0 mm 5 mps 744 mmHg 78%
    22:00 +3°C° 0 mm 4 mps 744 mmHg 79%
    23:00 +3°C° 0 mm 4 mps 744 mmHg 79%

    Tomorrow, 18 February, Tuesday

    Time Temperature Precipitation Wind Pressure Humidity
    00:00 +3°C° 0 mm 4 mps 744 mmHg 79%
    01:00 +1°C° 0 mm 4 mps 744 mmHg 78%
    02:00 +1°C° 0 mm 4 mps 744 mmHg 78%
    03:00 +1°C° 0 mm 4 mps 744 mmHg 78%
    04:00 +1°C° 0 mm 4 mps 743 mmHg 78%
    05:00 0°C° 0 mm 4 mps 743 mmHg 79%
    06:00 0°C° 0 mm 4 mps 743 mmHg 79%
    07:00 0°C° 0 mm 4 mps 743 mmHg 80%
    08:00 0°C° 0 mm 4 mps 743 mmHg 80%
    09:00 +1°C° 0 mm 5 mps 743 mmHg 77%
    10:00 +2°C° 0 mm 5 mps 743 mmHg 75%
    11:00 +3°C° 0 mm 5 mps 743 mmHg 72%
    12:00 +5°C° 0 mm 5 mps 742 mmHg 70%
    13:00 +4°C° 0 mm 6 mps 742 mmHg 67%
    14:00 +5°C° 0 mm 6 mps 742 mmHg 65%
    15:00 +5°C° 0.1 mm 5 mps 742 mmHg 70%
    16:00 +5°C° 0.1 mm 5 mps 741 mmHg 76%
    17:00 +4°C° 0.1 mm 4 mps 741 mmHg 81%
    18:00 +2°C° 0.1 mm 5 mps 741 mmHg 81%
    19:00 +2°C° 0.1 mm 5 mps 742 mmHg 81%
    20:00 +2°C° 0.1 mm 6 mps 742 mmHg 81%
    21:00 +1°C° 0 mm 6 mps 742 mmHg 81%
    22:00 +1°C° 0 mm 6 mps 742 mmHg 81%
    23:00 +1°C° 0 mm 6 mps 742 mmHg 82%

    Day after tomorrow, 19 February, Wednesday

    Time Temperature Precipitation Wind Pressure Humidity
    00:00 +1°C° 0 mm 6 mps 743 mmHg 82%
    01:00 -1°C° 0 mm 6 mps 743 mmHg 83%
    02:00 -2°C° 0 mm 6 mps 743 mmHg 83%
    03:00 -1°C° 0 mm 6 mps 743 mmHg 84%
    04:00 -1°C° 0 mm 6 mps 743 mmHg 85%
    05:00 -1°C° 0 mm 6 mps 743 mmHg 86%
    06:00 -1°C° 0 mm 6 mps 744 mmHg 83%
    07:00 0°C° 0 mm 5 mps 744 mmHg 81%
    08:00 0°C° 0 mm 5 mps 744 mmHg 79%
    09:00 -1°C° 0 mm 6 mps 744 mmHg 77%
    10:00 +1°C° 0 mm 6 mps 744 mmHg 75%
    11:00 +1°C° 0 mm 6 mps 744 mmHg 73%
    12:00 +1°C° 0 mm 6 mps 744 mmHg 72%
    13:00 +1°C° 0 mm 6 mps 744 mmHg 71%
    14:00 +2°C° 0 mm 5 mps 744 mmHg 70%
    15:00 +2°C° 0 mm 5 mps 744 mmHg 71%
    16:00 +1°C° 0 mm 5 mps 744 mmHg 72%
    17:00 +1°C° 0 mm 4 mps 743 mmHg 74%
    18:00 +1°C° 0 mm 4 mps 743 mmHg 75%
    19:00 +1°C° 0 mm 4 mps 743 mmHg 77%
    20:00 0°C° 0 mm 4 mps 743 mmHg 79%
    21:00 0°C° 0 mm 4 mps 743 mmHg 81%
    22:00 0°C° 0 mm 4 mps 743 mmHg 82%
    23:00 0°C° 0 mm 4 mps 743 mmHg 84%

    20 February, Thursday

    Time Temperature Precipitation Wind Pressure Humidity
    00:00 0°C° 0 mm 4 mps 743 mmHg 88%
    01:00 0°C° 0 mm 4 mps 743 mmHg 92%
    02:00 0°C° 0 mm 4 mps 743 mmHg 96%
    03:00 +1°C° 0.1 mm 3 mps 743 mmHg 96%
    04:00 +1°C° 0.1 mm 3 mps 743 mmHg 96%
    05:00 +1°C° 0.1 mm 3 mps 743 mmHg 96%
    06:00 +1°C° 0.2 mm 3 mps 743 mmHg 96%
    07:00 +1°C° 0.2 mm 3 mps 744 mmHg 97%
    08:00 +1°C° 0.2 mm 3 mps 744 mmHg 97%
    09:00 +1°C° 0.1 mm 3 mps 744 mmHg 92%
    10:00 +1°C° 0.1 mm 3 mps 745 mmHg 87%
    11:00 +1°C° 0.1 mm 3 mps 745 mmHg 82%
    12:00 +2°C° 0 mm 3 mps 745 mmHg 78%
    13:00 +2°C° 0 mm 3 mps 746 mmHg 73%
    14:00 +3°C° 0 mm 3 mps 746 mmHg 69%
    15:00 +3°C° 0 mm 2 mps 746 mmHg 72%
    16:00 +3°C° 0 mm 2 mps 746 mmHg 74%
    17:00 +3°C° 0 mm 2 mps 746 mmHg 77%
    18:00 +2°C° 0 mm 2 mps 747 mmHg 83%
    19:00 +2°C° 0 mm 1 mps 747 mmHg 88%
    20:00 +2°C° 0 mm 1 mps 748 mmHg 94%
    21:00 +2°C° 0 mm 1 mps 748 mmHg 95%
    22:00 +2°C° 0 mm 1 mps 748 mmHg 95%
    23:00 +2°C° 0 mm 1 mps 749 mmHg 95%

    21 February, Friday

    Time Temperature Precipitation Wind Pressure Humidity
    00:00 +2°C° 0 mm 1 mps 749 mmHg 95%
    01:00 +2°C° 0 mm 1 mps 749 mmHg 94%
    02:00 +2°C° 0 mm 1 mps 749 mmHg 94%
    03:00 +2°C° 0 mm 1 mps 749 mmHg 94%
    04:00 +2°C° 0 mm 1 mps 749 mmHg 93%
    05:00 +1°C° 0 mm 2 mps 749 mmHg 93%
    06:00 +1°C° 0 mm 2 mps 749 mmHg 93%
    07:00 +1°C° 0 mm 2 mps 749 mmHg 92%
    08:00 +1°C° 0 mm 2 mps 749 mmHg 92%
    15:00 +1°C° 0 mm 4 mps 748 mmHg 70%
    16:00 +1°C° 0 mm 4 mps 748 mmHg 71%
    17:00 +1°C° 0 mm 3 mps 747 mmHg 72%
    18:00 0°C° 0.1 mm 4 mps 747 mmHg 80%
    19:00 -1°C° 0.1 mm 4 mps 747 mmHg 88%
    20:00 -1°C° 0.1 mm 4 mps 747 mmHg 96%
    21:00 -1°C° 0.2 mm 4 mps 747 mmHg 95%
    22:00 -1°C° 0.2 mm 4 mps 748 mmHg 94%
    23:00 +1°C° 0.2 mm 3 mps 748 mmHg 93%

    22 February, Saturday

    Time Temperature Precipitation Wind Pressure Humidity
    00:00 +1°C° 0 mm 3 mps 748 mmHg 91%
    01:00 +1°C° 0 mm 3 mps 748 mmHg 90%
    02:00 0°C° 0 mm 4 mps 747 mmHg 88%
    03:00 0°C° 0 mm 4 mps 747 mmHg 88%
    04:00 0°C° 0 mm 4 mps 747 mmHg 87%
    05:00 0°C° 0 mm 4 mps 747 mmHg 87%
    06:00 0°C° 0 mm 4 mps 747 mmHg 86%
    07:00 -1°C° 0 mm 4 mps 746 mmHg 85%
    08:00 -1°C° 0 mm 4 mps 746 mmHg 85%
    09:00 0°C° 0 mm 5 mps 746 mmHg 80%
    10:00 +1°C° 0 mm 6 mps 745 mmHg 75%
    11:00 0°C° 0 mm 7 mps 744 mmHg 70%
    12:00 0°C° 0 mm 7 mps 743 mmHg 72%
    13:00 0°C° 0 mm 7 mps 742 mmHg 73%
    14:00 0°C° 0 mm 8 mps 741 mmHg 75%
    15:00 0°C° 0.7 mm 8 mps 740 mmHg 81%
    16:00 -1°C° 0.7 mm 8 mps 738 mmHg 88%
    17:00 -2°C° 0.7 mm 8 mps 737 mmHg 95%
    18:00 -2°C° 0.8 mm 8 mps 736 mmHg 95%
    19:00 -2°C° 0.8 mm 8 mps 735 mmHg 95%
    20:00 -2°C° 0.8 mm 8 mps 733 mmHg 95%
    21:00 -1°C° 0.2 mm 7 mps 733 mmHg 94%
    22:00 0°C° 0.2 mm 7 mps 732 mmHg 92%
    23:00 +1°C° 0.2 mm 6 mps 731 mmHg 91%
    Show more